Wind_Speed
25 26 26 26 26 26 26 25 24 24 25 25 25 24 24 25 25 25 25 26 26 26 26 25 25 25 25 25 25 25 24 24 24 23 22 21 21 20 20 19 20 20 20
26 26 26 27 26 26 26 25 25 25 25 25 25 24 24 24 24 24 24 24 25 25 25 25 25 25 24 24 24 23 22 22 22 21 21 20 19 18 18 18 18 18 18
26 26 26 26 25 24 24 24 24 24 24 24 24 23 23 22 22 23 23 23 22 22 23 23 23 23 23 22 22 22 22 21 20 20 19 18 18 17 17 17 17 16 16
26 25 25 24 24 24 24 23 23 22 22 23 22 22 21 21 21 21 21 21 21 20 21 21 21 21 21 21 20 20 20 19 19 18 17 17 16 16 16 15 15 14 14
25 25 24 24 23 23 23 22 21 21 21 21 21 20 20 20 19 19 19 18 18 19 19 18 19 19 19 18 18 18 17 17 16 16 15 15 14 14 14 14 13 12 12
23 23 22 22 22 22 21 20 19 20 20 20 19 19 19 18 17 16 16 16 16 16 16 17 17 16 15 15 16 16 15 15 15 13 13 12 12 12 12 11 10 9 9
21 21 20 20 20 19 18 18 18 18 18 18 17 17 16 15 15 15 15 14 14 14 14 14 14 14 13 13 13 13 13 13 13 13 13 12 10 10 9 8 8 7 7
18 17 17 16 16 16 16 16 15 14 14 14 14 14 13 12 12 12 11 12 12 12 11 11 10 10 10 10 11 11 11 11 11 12 11 11 10 9 8 7 6 6 6
14 14 14 13 13 14 14 13 12 12 11 10 10 10 9 8 8 7 7 7 7 7 7 7 7 6 6 6 7 8 8 8 9 8 7 7 7 6 6 5 5 4 4
12 12 12 11 12 12 11 10 10 9 9 8 7 7 6 6 5 5 5 4 4 3 3 2 2 3 3 3 3 3 3 4 4 3 4 5 5 4 4 3 3 3 3
9 9 9 9 9 9 8 8 7 7 6 5 5 4 4 3 3 2 1 1 2 2 1 1 0 0 1 1 1 1 1 1 1 1 2 3 3 3 3 2 2 2 2
8 8 7 7 7 7 6 6 5 4 3 3 3 2 2 1 1 2 2 2 3 3 3 2 2 3 3 3 2 3 3 2 3 2 2 2 2 2 1 0 1 2 3
7 7 6 6 6 6 5 3 2 1 2 2 1 0 1 2 3 3 3 4 4 4 4 4 4 5 5 5 5 5 4 4 4 4 4 4 3 3 2 2 2 2 2
7 8 6 5 5 4 4 3 2 2 2 3 2 2 2 3 4 4 4 4 4 4 5 5 5 6 6 6 7 7 7 6 6 6 6 5 4 4 3 3 3 3 4
7 7 7 6 6 5 4 4 4 4 3 3 4 4 4 4 5 4 4 5 6 6 6 6 7 7 7 7 7 7 7 7 7 7 7 6 6 5 5 4 4 5 5
8 8 7 7 6 6 6 5 6 6 6 6 6 6 6 6 5 5 5 6 6 6 7 7 8 8 9 9 8 8 8 8 8 7 7 7 6 6 6 6 6 6 6
8 8 7 7 7 7 7 7 7 7 7 7 7 7 6 5 5 6 6 6 7 7 7 7 8 8 8 8 8 8 7 7 7 6 6 6 6 6 7 7 7 7 8
9 9 8 7 7 7 7 7 7 7 7 7 6 6 6 6 7 7 7 7 7 7 7 7 7 7 7 7 7 7 7 7 6 6 6 6 6 6 6 7 8 8 9
10 9 9 8 8 7 7 7 7 8 8 7 7 7 7 7 7 7 7 7 6 6 7 7 7 6 6 7 7 6 6 5 5 5 5 5 5 5 6 7 8 9 9
10 10 9 8 8 8 7 7 7 7 7 7 7 7 7 7 6 6 6 6 6 6 6 6 6 6 6 6 5 4 4 4 4 4 4 4 4 5 6 7 8 9 11
9 9 9 9 8 8 7 7 7 6 6 6 6 6 6 6 5 5 5 5 5 4 4 4 4 4 4 3 3 3 3 2 2 3 3 4 4 6 7 8 10 11 13
8 8 8 8 8 8 7 7 6 6 6 5 5 5 5 4 4 4 3 3 3 3 2 2 1 1 1 1 2 2 2 3 3 4 4 6 7 8 9 11 13 14 15
6 6 6 6 7 7 6 6 6 5 5 4 4 4 3 3 2 2 2 2 2 1 1 1 1 1 2 3 4 4 5 5 6 7 8 9 10 11 12 14 15 17 18
4 5 5 5 5 5 5 5 4 4 3 3 2 2 2 2 1 1 0 0 1 2 2 3 3 4 5 6 6 7 8 9 10 11 12 13 14 15 16 17 18 20 21
4 4 4 4 4 4 3 3 2 2 2 1 1 0 0 1 1 1 2 3 3 4 5 5 6 7 8 9 10 11 11 12 14 14 15 16 17 18 19 20 22 23 24
4 4 4 4 4 3 3 3 2 2 2 2 2 2 3 4 4 5 5 6 7 8 8 9 10 11 12 12 13 15 16 17 17 18 19 20 21 22 23 24 26 27 27
Wind_Direction
289 289 288 289 289 289 289 289 288 288 287 287 287 285 283 282 280 279 278 278 277 276 276 275 276 277 276 276 278 280 281 283 283 283 283 282 282 282 282 284 285 285 287
289 289 289 289 288 287 288 289 287 286 286 286 286 285 283 283 282 281 280 279 278 277 276 275 276 277 277 275 276 278 280 281 281 281 280 280 279 280 282 284 287 287 285
289 289 289 287 287 287 287 288 287 287 287 287 286 285 284 283 283 283 281 279 278 277 276 276 275 275 276 275 275 277 278 279 279 278 277 277 278 280 282 284 285 287 285
290 289 289 289 288 288 288 288 288 287 286 286 287 285 284 284 284 283 282 280 278 276 276 276 275 274 274 275 275 275 276 277 276 274 273 275 276 277 281 284 285 285 286
291 290 290 290 289 288 288 289 288 287 286 285 285 285 285 285 284 284 282 281 280 277 276 276 277 277 276 274 274 272 274 273 271 270 271 272 274 276 278 282 285 287 289
294 293 291 290 290 291 290 290 291 290 287 285 285 285 285 285 283 283 283 281 281 278 278 277 276 277 275 272 269 268 268 267 266 267 270 271 273 274 277 279 280 284 288
294 292 290 290 290 293 290 290 292 292 290 288 286 286 285 283 284 284 282 280 281 281 282 280 278 276 272 269 265 263 263 263 264 265 265 267 269 270 271 270 276 283 292
297 295 294 293 293 293 292 291 289 290 290 289 288 287 286 283 284 287 284 280 278 277 278 278 277 277 273 267 264 263 260 259 260 260 259 261 265 266 266 268 269 279 289
301 302 301 300 299 295 294 291 289 290 292 293 292 292 288 285 287 289 288 289 286 282 280 278 275 277 273 267 265 263 261 262 261 257 253 253 258 258 261 266 266 274 287
306 305 304 304 303 299 298 297 295 291 291 295 296 298 292 288 284 283 294 300 302 303 291 277 270 267 274 265 260 255 258 256 253 255 246 242 241 246 249 252 259 274 284
316 313 311 310 309 307 304 302 302 293 287 287 292 301 298 288 282 283 294 347 19 30 37 43 77 325 297 225 200 192 183 175 204 197 202 209 212 221 234 254 270 290 310
331 330 325 327 328 324 313 305 300 300 298 293 290 299 308 345 66 85 87 84 68 62 74 90 92 86 80 100 108 115 105 109 118 121 129 150 167 175 172 197 329 349 349
347 344 337 331 336 339 338 332 332 334 340 334 327 317 91 85 84 89 84 87 78 70 75 85 86 88 88 92 90 89 95 107 109 110 110 114 112 109 100 88 68 28 10
11 8 0 352 352 357 360 18 33 28 36 37 56 99 101 103 101 99 92 89 83 84 87 86 93 96 95 94 95 93 93 97 95 95 97 98 94 89 81 70 58 36 25
15 15 17 22 28 30 34 49 58 58 58 63 77 92 103 107 105 101 97 92 92 91 93 94 100 100 95 95 96 95 95 95 97 100 98 93 88 81 72 62 54 47 36
29 31 34 40 45 45 51 58 66 74 75 80 91 105 112 110 105 100 99 103 104 97 96 97 102 99 96 95 97 96 94 92 95 96 95 92 84 77 70 62 52 41 30
36 39 44 49 51 56 61 67 71 73 77 84 95 103 110 115 109 108 106 102 100 102 104 102 101 97 96 95 95 95 92 92 93 91 88 84 75 69 64 55 44 35 28
42 48 52 55 56 55 59 65 69 74 82 91 97 103 106 108 109 107 104 100 99 101 105 104 100 97 93 93 94 92 89 87 87 84 81 74 66 57 48 39 32 26 21
48 50 52 55 56 60 64 68 72 77 87 94 102 108 110 110 108 105 101 100 99 104 106 105 103 101 96 94 93 90 86 82 79 75 69 59 48 38 29 21 16 12 8
50 51 52 52 56 60 65 70 77 81 85 94 103 110 112 109 107 107 105 104 104 105 105 107 108 105 99 95 91 84 76 70 62 55 47 34 23 13 8 4 0 357 353
51 52 52 54 59 61 63 68 72 77 84 93 101 108 113 113 113 111 109 111 111 109 108 112 115 110 100 87 71 57 47 38 24 14 3 356 351 348 346 344 342 342 342
42 46 48 51 58 61 62 65 70 74 77 85 98 108 113 115 120 120 117 118 121 123 119 117 121 105 75 19 359 352 345 337 331 329 328 329 329 329 329 330 332 332 333
37 39 41 47 51 54 57 61 67 72 74 82 94 101 104 104 119 130 127 132 149 168 190 230 276 296 308 313 313 312 310 309 308 310 312 315 316 317 319 321 323 324 325
26 27 32 37 39 42 47 53 57 61 62 70 86 97 103 100 103 131 157 224 237 248 260 274 283 292 297 299 301 301 301 301 301 303 304 306 308 309 312 314 316 318 319
10 9 13 16 15 13 16 27 36 42 42 40 48 19 279 302 305 295 297 295 291 288 285 284 286 288 290 293 296 297 297 298 298 298 299 301 302 304 306 308 310 312 314
352 349 346 344 342 341 346 348 346 341 332 313 295 286 283 282 282 281 283 284 283 284 286 288 289 290 290 291 293 295 295 295 295 296 297 298 300 301 302 304 306 308 309
Height
5795 5793 5791 5789 5788 5787 5786 5784 5783 5782 5781 5780 5780 5779 5779 5778 5777 5777 5777 5777 5777 5777 5777 5777 5777 5777 5778 5778 5778 5779 5779 5779 5779 5779 5779 5779 5779 5778 5778 5778 5778 5777 5777
5788 5787 5785 5783 5782 5780 5779 5778 5777 5776 5775 5774 5773 5773 5772 5771 5770 5770 5770 5770 5770 5770 5770 5770 5770 5770 5771 5771 5772 5772 5772 5773 5773 5773 5773 5773 5773 5773 5773 5773 5773 5772 5772
5782 5781 5779 5777 5776 5774 5773 5772 5771 5770 5769 5768 5767 5766 5765 5765 5764 5764 5763 5763 5763 5763 5763 5763 5764 5764 5764 5765 5766 5766 5766 5767 5767 5767 5768 5768 5768 5768 5768 5768 5768 5767 5767
5776 5774 5772 5771 5769 5768 5767 5766 5765 5764 5763 5762 5761 5760 5759 5759 5758 5757 5757 5757 5756 5756 5757 5757 5757 5758 5758 5759 5760 5760 5761 5761 5761 5762 5763 5763 5763 5764 5764 5764 5763 5763 5763
5769 5768 5766 5765 5763 5762 5761 5760 5759 5758 5757 5756 5755 5755 5754 5753 5752 5752 5751 5751 5751 5751 5751 5751 5752 5752 5753 5753 5754 5755 5755 5756 5756 5757 5758 5758 5759 5759 5760 5760 5760 5759 5759
5763 5761 5760 5759 5757 5756 5755 5754 5753 5753 5752 5751 5750 5750 5749 5748 5747 5747 5746 5746 5746 5746 5746 5746 5747 5747 5747 5748 5749 5750 5750 5751 5752 5753 5754 5754 5755 5755 5756 5756 5756 5756 5756
5757 5756 5754 5753 5752 5751 5750 5749 5749 5748 5747 5746 5746 5745 5744 5744 5743 5743 5742 5742 5742 5742 5742 5742 5742 5742 5743 5744 5744 5745 5746 5747 5748 5749 5750 5751 5751 5752 5752 5752 5753 5753 5753
5752 5751 5749 5748 5747 5747 5746 5745 5744 5743 5743 5742 5741 5741 5740 5740 5739 5739 5739 5738 5738 5738 5738 5738 5738 5739 5739 5740 5740 5741 5742 5743 5744 5745 5746 5747 5748 5749 5749 5750 5750 5750 5750
5748 5747 5746 5745 5744 5743 5742 5741 5741 5740 5739 5739 5738 5738 5737 5737 5737 5737 5736 5736 5736 5735 5735 5736 5736 5736 5737 5737 5738 5738 5739 5740 5741 5742 5743 5744 5745 5746 5747 5748 5748 5748 5749
5746 5744 5743 5742 5741 5740 5739 5739 5738 5737 5737 5737 5736 5736 5735 5735 5735 5735 5735 5735 5734 5734 5734 5734 5735 5735 5735 5735 5736 5736 5737 5738 5739 5740 5741 5742 5743 5744 5745 5746 5746 5747 5747
5744 5742 5741 5740 5739 5738 5737 5736 5736 5735 5735 5735 5735 5735 5735 5734 5734 5734 5735 5735 5734 5734 5734 5734 5735 5735 5735 5735 5735 5736 5736 5737 5738 5739 5739 5740 5742 5743 5744 5744 5745 5745 5745
5743 5741 5740 5739 5738 5737 5736 5735 5735 5735 5735 5735 5735 5735 5734 5734 5734 5735 5735 5735 5735 5735 5735 5735 5735 5735 5735 5735 5736 5736 5737 5737 5738 5739 5739 5740 5741 5742 5743 5743 5744 5744 5744
5742 5741 5739 5739 5737 5736 5736 5735 5735 5735 5734 5735 5735 5735 5735 5735 5735 5736 5736 5736 5737 5736 5736 5736 5736 5737 5737 5737 5737 5737 5738 5738 5739 5739 5740 5741 5742 5742 5743 5743 5743 5744 5744
5742 5741 5740 5739 5737 5737 5736 5735 5735 5735 5735 5735 5735 5735 5736 5736 5737 5737 5738 5738 5738 5738 5738 5738 5738 5738 5739 5739 5739 5739 5740 5740 5740 5741 5742 5742 5743 5743 5743 5743 5743 5743 5743
5743 5742 5741 5739 5738 5738 5737 5736 5736 5736 5736 5736 5736 5736 5737 5738 5738 5739 5739 5739 5740 5740 5739 5740 5740 5741 5741 5741 5741 5742 5742 5742 5742 5743 5743 5744 5744 5744 5744 5744 5744 5743 5743
5745 5743 5742 5741 5740 5739 5739 5738 5738 5737 5737 5737 5737 5738 5739 5739 5740 5740 5741 5741 5741 5742 5742 5742 5743 5743 5743 5743 5744 5744 5744 5744 5745 5745 5745 5745 5745 5745 5745 5744 5744 5743 5742
5746 5745 5744 5743 5742 5741 5740 5740 5739 5739 5739 5739 5739 5740 5740 5741 5742 5742 5743 5743 5744 5744 5745 5745 5745 5746 5746 5746 5746 5747 5747 5747 5747 5747 5747 5747 5747 5746 5746 5745 5744 5743 5742
5748 5747 5746 5745 5744 5743 5743 5742 5742 5741 5741 5741 5742 5742 5743 5743 5744 5745 5745 5746 5746 5746 5747 5747 5748 5748 5748 5748 5749 5749 5749 5749 5749 5749 5749 5748 5748 5747 5747 5746 5745 5744 5742
5751 5749 5748 5747 5746 5745 5745 5744 5744 5744 5744 5744 5744 5745 5745 5746 5746 5747 5748 5748 5748 5749 5749 5750 5750 5750 5750 5751 5751 5751 5751 5751 5751 5750 5750 5750 5749 5748 5747 5746 5745 5744 5742
5753 5752 5751 5750 5749 5748 5747 5747 5747 5747 5747 5747 5747 5748 5748 5748 5749 5750 5750 5750 5751 5751 5752 5752 5752 5752 5752 5752 5752 5752 5752 5752 5752 5751 5751 5750 5749 5748 5747 5746 5745 5743 5741
5756 5755 5754 5752 5751 5751 5750 5750 5749 5749 5749 5749 5750 5750 5750 5751 5752 5752 5752 5753 5753 5753 5754 5754 5754 5754 5754 5754 5754 5754 5753 5753 5752 5752 5751 5750 5749 5748 5747 5745 5743 5741 5739
5759 5758 5756 5755 5754 5754 5753 5752 5752 5752 5752 5752 5752 5752 5752 5753 5753 5754 5754 5754 5754 5755 5755 5755 5755 5755 5755 5755 5754 5754 5753 5753 5752 5752 5751 5749 5748 5747 5745 5743 5741 5739 5736
5761 5760 5759 5758 5757 5756 5755 5755 5754 5754 5754 5754 5754 5754 5754 5754 5755 5755 5755 5755 5755 5756 5756 5756 5756 5756 5755 5755 5754 5754 5753 5752 5751 5750 5749 5748 5746 5744 5742 5740 5738 5735 5733
5762 5762 5761 5760 5759 5758 5758 5757 5756 5756 5756 5755 5755 5756 5756 5756 5756 5756 5756 5756 5756 5756 5756 5756 5755 5755 5755 5754 5753 5752 5751 5750 5749 5748 5746 5745 5743 5741 5739 5737 5734 5731 5728
5764 5763 5762 5761 5760 5760 5759 5758 5758 5757 5757 5757 5757 5757 5757 5756 5756 5756 5756 5756 5756 5756 5755 5755 5754 5754 5753 5752 5751 5750 5749 5747 5746 5744 5743 5741 5739 5737 5734 5732 5729 5726 5722
5764 5763 5763 5762 5761 5761 5760 5759 5759 5758 5758 5758 5757 5757 5757 5756 5756 5756 5755 5755 5755 5754 5754 5753 5752 5751 5750 5749 5748 5747 5745 5744 5742 5740 5738 5736 5734 5731 5729 5726 5723 5719 5716